Regional Weather Roundup
Issued by NWS

Home | Current Version | Previous Version | Text Only | Print | Product List | Glossary Off
Versions: 1 2 3 4 5 6 7 8 9 10 11 12 13 14 15 16 17 18 19 20 21 22 23 24 25 26 27 28 29 30 31 32 33 34 35 36 37 38 39 40 41 42 43 44 45 46 47 48 49 50

000
ASUS43 KTOP 282359
RWRKS

WEATHER ROUNDUP FOR KANSAS
NATIONAL WEATHER SERVICE GOODLAND KS
700 PM CDT SAT MAR 28 2015

NOTE:  "FAIR" INDICATES FEW OR NO CLOUDS BELOW 12,000 FEET WITH NO
SIGNIFICANT WEATHER AND/OR OBSTRUCTIONS TO VISIBILITY.

KSZ001>006-013>018-027>032-041>047-290100-
NORTHWEST KANSAS

CITY           SKY/WX    TMP DP  RH WIND       PRES   REMARKS
GOODLAND       SUNNY     79  20  11 W9        29.87F
6HR MIN TEMP:  72; 6HR MAX TEMP:  81;

HAYS           SUNNY     72  39  30 SE17      29.94S
HILL CITY      SUNNY     74  37  26 SE16G22   29.89F
6HR MIN TEMP:  63; 6HR MAX TEMP:  76;

RUSSELL        CLEAR     69  40  34 SE16      29.94R
6HR MIN TEMP:  63; 6HR MAX TEMP:  73;

$$

KSZ061>065-074>080-084>089-290100-
SOUTHWEST KANSAS

CITY           SKY/WX    TMP DP  RH WIND       PRES   REMARKS
DODGE CITY     SUNNY     78  34  20 S10       29.94R
6HR MIN TEMP:  72; 6HR MAX TEMP:  80;

ELKHART          N/A     81  31  16 SW5         N/A
GARDEN CITY    SUNNY     78  31  17 S9        29.90F
6HR MIN TEMP:  72; 6HR MAX TEMP:  80;

GREAT BEND     CLEAR     70  41  35 SE17      29.96R
LIBERAL        SUNNY     81  34  18 SE8       29.93S
$$

KSZ066>073-081>083-090>101-290100-
SOUTHEAST KANSAS

CITY           SKY/WX    TMP DP  RH WIND       PRES   REMARKS
CHANUTE        CLEAR     58  40  51 E13       30.07R
6HR MIN TEMP:  57; 6HR MAX TEMP:  63;

COFFEYVILLE    CLEAR     64  42  44 SE8       30.05R
6HR MIN TEMP:  60; 6HR MAX TEMP:  67;

HUTCHINSON     CLEAR     70  40  33 SE12      29.98R
6HR MIN TEMP:  65; 6HR MAX TEMP:  73;

MEDICINE LODGE   N/A     73  42  32 SE10      29.96R
NEWTON         CLEAR     64  37  36 SE12      30.02R
PARSONS        CLEAR     61  43  51 VRB7      30.06R
6HR MIN TEMP:  59; 6HR MAX TEMP:  66;

WICHITA INTL   CLEAR     70  40  33 SE16      29.98R
6HR MIN TEMP:  63; 6HR MAX TEMP:  73;

WICHITA JABRA  CLEAR     67  39  35 E13       29.99S
6HR MIN TEMP:  62; 6HR MAX TEMP:  71;

WINFIELD       CLEAR     69  41  36 E12       30.00R
6HR MIN TEMP:  64; 6HR MAX TEMP:  74;

$$

KSZ007>012-019>026-033>040-048>060-102>105-290100-
NORTHEAST KANSAS

CITY           SKY/WX    TMP DP  RH WIND       PRES   REMARKS
CONCORDIA      CLEAR     61  36  39 SE17      29.97F
6HR MIN TEMP:  56; 6HR MAX TEMP:  65;

EMPORIA        PTCLDY    58  37  45 SE15      30.04S
6HR MIN TEMP:  55; 6HR MAX TEMP:  62;

LAWRENCE       CLEAR     52  32  46 SE15      30.11R
6HR MIN TEMP:  51; 6HR MAX TEMP:  55;

MANHATTAN      CLEAR     60  35  39 SE13      30.02S
6HR MIN TEMP:  55; 6HR MAX TEMP:  63;

OLATHE IND     CLEAR     50  32  50 SE13      30.12S
6HR MIN TEMP:  48; 6HR MAX TEMP:  52;

OLATHE EXE     CLEAR     49  31  49 SE12      30.11S
6HR MIN TEMP:  46; 6HR MAX TEMP:  53;

SALINA         CLEAR     66  37  34 SE16      29.98S
6HR MIN TEMP:  59; 6HR MAX TEMP:  69;

TOPEKA BILLARD CLEAR     54  33  45 SE15      30.09R
6HR MIN TEMP:  52; 6HR MAX TEMP:  57;

TOPEKA FORBES  CLEAR     54  33  45 E13       30.07S
6HR MIN TEMP:  53; 6HR MAX TEMP:  58;

$$



USA.gov is the U.S. government's official web portal to all federal, state and local government web resources and services.